TimeEST,TemperatureF,Dew PointF,Humidity,Sea Level PressureIn,VisibilityMPH,Wind Direction,Wind SpeedMPH,Gust SpeedMPH,PrecipitationIn,Events,Conditions,WindDirDegrees,DateUTC
12:53 AM,34.0,23.0,64,30.24,10.0,SSW,4.6,-,N/A,,Clear,200,2011-12-19 05:53:00
1:53 AM,36.0,24.1,62,30.22,10.0,SSW,3.5,-,N/A,,Clear,200,2011-12-19 06:53:00
2:53 AM,36.0,24.1,62,30.21,10.0,SSW,4.6,-,N/A,,Clear,200,2011-12-19 07:53:00
3:53 AM,37.0,24.1,59,30.20,10.0,SSW,5.8,-,N/A,,Clear,200,2011-12-19 08:53:00
4:53 AM,37.0,24.1,59,30.19,10.0,SSW,5.8,-,N/A,,Clear,200,2011-12-19 09:53:00
5:53 AM,37.0,24.1,59,30.19,10.0,SSW,8.1,-,N/A,,Clear,200,2011-12-19 10:53:00
6:53 AM,37.9,24.1,57,30.18,10.0,SSW,8.1,-,N/A,,Clear,210,2011-12-19 11:53:00
7:53 AM,39.0,25.0,57,30.19,10.0,SSW,8.1,19.6,N/A,,Clear,200,2011-12-19 12:53:00
8:53 AM,41.0,26.1,55,30.19,10.0,SSW,9.2,-,N/A,,Clear,210,2011-12-19 13:53:00
9:53 AM,43.0,27.0,53,30.17,10.0,South,9.2,16.1,N/A,,Mostly Cloudy,190,2011-12-19 14:53:00
10:53 AM,44.1,27.0,51,30.17,10.0,SSW,12.7,24.2,N/A,,Overcast,210,2011-12-19 15:53:00
11:53 AM,46.0,28.0,50,30.13,10.0,SSW,8.1,18.4,N/A,,Overcast,200,2011-12-19 16:53:00
12:53 PM,46.4,28.4,50,30.08,10.0,SSW,9.2,17.3,N/A,,Overcast,210,2011-12-19 17:53:00
1:53 PM,46.9,28.0,48,30.11,10.0,SW,9.2,-,0.00,,Overcast,220,2011-12-19 18:53:00
2:53 PM,46.9,28.9,50,30.10,10.0,SSW,8.1,17.3,N/A,,Overcast,200,2011-12-19 19:53:00
3:53 PM,46.9,28.0,48,30.10,10.0,SSW,6.9,-,N/A,,Overcast,210,2011-12-19 20:53:00
4:53 PM,48.0,28.9,48,30.11,10.0,SSW,5.8,-,N/A,,Overcast,210,2011-12-19 21:53:00
5:53 PM,48.0,28.9,48,30.11,10.0,SW,6.9,-,N/A,,Overcast,220,2011-12-19 22:53:00
6:53 PM,48.0,30.0,50,30.13,10.0,SW,11.5,18.4,N/A,,Overcast,220,2011-12-19 23:53:00
7:53 PM,46.9,30.9,54,30.12,10.0,SW,9.2,18.4,N/A,,Overcast,220,2011-12-20 00:53:00
8:53 PM,46.4,32.0,57,30.11,10.0,Variable,5.8,-,N/A,,Overcast,0,2011-12-20 01:53:00
9:53 PM,46.0,34.0,63,30.13,10.0,SW,5.8,-,0.00,,Overcast,220,2011-12-20 02:53:00
10:53 PM,46.0,35.1,66,30.13,10.0,SW,6.9,-,0.00,,Overcast,230,2011-12-20 03:53:00
11:30 PM,44.6,35.6,71,30.12,10.0,SW,11.5,-,0.00,Rain,Light Rain,220,2011-12-20 04:30:00
11:53 PM,44.1,37.0,76,30.13,9.0,SW,8.1,-,0.02,Rain,Light Rain,220,2011-12-20 04:53:00